Regional Weather Roundup
Issued by NWS

Home | Current Version | Previous Version | Graphics & Text | Print | Product List | Glossary On
Versions: 1 2 3 4 5 6 7 8 9 10 11 12 13 14 15 16 17 18 19 20 21 22 23 24 25 26 27 28 29 30 31 32 33 34 35 36 37 38 39 40 41 42 43 44 45 46 47 48 49 50
000
ASUS45 KPSR 260710
RWRAZ

ARIZONA REGIONAL HOURLY WEATHER ROUNDUP
NATIONAL WEATHER SERVICE PHOENIX AZ
1200 AM MST SUN APR 26 2015

NOTE: FAIR INDICATES FEW OR NO CLOUDS BELOW 12,000 FEET WITH NO
SIGNIFICANT WEATHER AND/OR OBSTRUCTIONS TO VISIBILITY.

AZZ001>003-036-260800-
NORTHWEST ARIZONA

CITY           SKY/WX    TMP DP  RH WIND       PRES   REMARKS
BULLHEAD CITY  CLOUDY    59  46  63 N8        29.78S
KINGMAN        CLOUDY    46  43  89 CALM      29.78F
$$

AZZ004>008-015-016-018-260800-
NORTH CENTRAL ARIZONA

CITY           SKY/WX    TMP DP  RH WIND       PRES   REMARKS
GRAND CANYON   CLOUDY    36  35  96 CALM      29.80S
WILLIAMS       CLOUDY    32  32 100 S5        29.86S WCI  27
PRESCOTT       LGT RAIN  40  35  83 NW6       29.80F
FLAGSTAFF      LGT SNOW  33  33 100 CALM      29.80S FOG
PAYSON         LGT RAIN  43  43 100 VRB3      29.80F
PAGE           CLOUDY    50  39  66 CALM      29.74F
$$

AZZ009>014-017-260800-
NORTHEAST ARIZONA

CITY           SKY/WX    TMP DP  RH WIND       PRES   REMARKS
WINSLOW        LGT RAIN  47  37  68 W3        29.79F
SAINT JOHNS    CLOUDY    45  36  70 W9        29.81F
WINDOW ROCK    LGT RAIN  38  34  85 S9        29.84F WCI  31
SHOW LOW       LGT RAIN  39  36  87 SW23G29   29.83S WCI  29
$$

AZZ023-260800-
GREATER PHOENIX AREA

CITY           SKY/WX    TMP DP  RH WIND       PRES   REMARKS
PHOENIX        LGT RAIN  57  51  80 NW15      29.81R
BUCKEYE        CLOUDY    55  55 100 CALM      29.80F
LUKE AFB       CLOUDY    55  50  82 E5        29.78F
DEER VALLEY    LGT RAIN  53  48  83 W5        29.79R
SCOTTSDALE     LGT RAIN  54  48  80 NW9G18    29.82R
MESA-GATEWAY   MOCLDY    57  46  67 NW28G44   29.82R
$$

AZZ027-028-260800-
SOUTHWEST MARICOPA COUNTY AND PINAL COUNTY

CITY           SKY/WX    TMP DP  RH WIND       PRES   REMARKS
CASA GRANDE    CLOUDY    61  45  55 W21G28    29.79R
GILA BEND      MOCLDY    62  49  61 W13       29.79S
$$

AZZ503-504-507>509-260800-
SOUTHEAST ARIZONA

CITY           SKY/WX    TMP DP  RH WIND       PRES   REMARKS
TUCSON         CLOUDY    67  35  30 SW13G22   29.84S
DAVIS-MONTHAN  CLOUDY    65  35  32 SW10      29.82S
NOGALES        CLOUDY    57  36  45 S7        29.90S
SIERRA VISTA   MOCLDY    56  28  34 W16G22    29.89S
DOUGLAS        MOCLDY    58  29  33 SW8       29.88S
SAFFORD        CLOUDY    63  37  38 N14G24    29.77R
$$

AZZ020-021-025-026-031-260800-
SOUTHWEST ARIZONA

CITY           SKY/WX    TMP DP  RH WIND       PRES   REMARKS
YUMA           CLOUDY    61  52  72 S6        29.82F
$$

CAZ031-033-041-043-047-048-061-260800-
SOUTHERN CALIFORNIA

CITY           SKY/WX    TMP DP  RH WIND       PRES   REMARKS
DOWNTOWN L.A.  CLEAR     58  50  75 CALM      29.91R
L.A. AIRPORT   CLEAR     57  50  77 W6        29.92R
SAN DIEGO      MOCLDY    61  49  64 W10       29.98S
BURBANK        CLEAR     57  47  69 NW6       29.90R
ONTARIO        MOCLDY    55  50  83 W5        29.92R
RIVERSIDE      MOCLDY    55  51  86 CALM      29.93R
PALM SPRINGS   CLEAR     69  34  27 N8        29.80R
EL CENTRO NAS  CLEAR     65  43  44 W25       29.85R
IMPERIAL       CLEAR     62  45  53 W14       29.82R
BLYTHE         PTCLDY    67  45  45 W12       29.77R
NEEDLES        CLOUDY    63  39  41 N8        29.77R
$$

NVZ020-UTZ003-260800-
SOUTHERN NEVADA-UTAH

CITY           SKY/WX    TMP DP  RH WIND       PRES   REMARKS
LAS VEGAS      MOCLDY    57  39  51 NW16G25   29.75S
SALT LAKE CITY RAIN      43  40  89 W12       29.74S
$$

NMZ009-TXZ055-260800-
NEW MEXICO-WEST TEXAS

CITY           SKY/WX    TMP DP  RH WIND       PRES   REMARKS
ALBUQUERQUE    LGT RAIN  59  28  30 SW9       29.81R
EL PASO        PTCLDY    67  21  17 SW20      29.80F
$$


........................KEY........................
SKY/WX - SKY CONDITION/WEATHER
TMP    - TEMPERATURE IN FAHRENHEIT
DP     - DEW POINT IN FAHRENHEIT
RH     - RELATIVE HUMIDITY IN PERCENT
WIND   - DIRECTION AND SPEED IN MILES PER HOUR (MPH)
VRB    - VARIABLE WIND DIRECTION
PRES   - MEAN SEA LEVEL PRESSURE IN INCHES OF MERCURY
         F - FALLING PRESSURE   R - RISING PRESSURE
         S - STEADY PRESSURE
VSB    - VISIBILITY IN MILES
HX     - HEAT INDEX IN FAHRENHEIT
WCI    - WIND CHILL INDEX IN FAHRENHEIT
TC     - TEMPERATURE IN CELSIUS WHICH IS ALSO KNOWN AS
         TEMPERATURE IN CENTIGRADE
AFB    - AIR FORCE BASE
         LUKE AFB IS LUKE AIR FORCE BASE
         DAVIS-MONTHAN IS DAVIS-MONTHAN AIR FORCE BASE
NAS    - NAVAL AIR STATION
         EL CENTRO NAS IS EL CENTRO NAVAL AIR STATION
N/A    - NOT AVAILABLE



USA.gov is the U.S. government's official web portal to all federal, state and local government web resources and services.